Location: ?????? ??????
(44.3742°N, 135.2221°E)
Time: 11:36:31
(UTC+00:00)

Spot 4 - Pass Details

Date: 19 May 2025
Orbit: 699 x 715 km, 98.3° (Epoch: 13 June)

Event Time Altitude Azimuth Distance (km) Brightness Sun altitude
Exits shadow 14:41:49 51° 267° (W) 884 4.2 -25.6°
Drops below altitude 10° 14:46:19 10° 337° (NNW) 2,180 7.2 -25.7°
Sets 14:48:39 0° 342° (NNW) 3,106 8.4 -25.7°
